Location: Bouchavesnes-Bergen
(49.9859°N, 2.9203°E)
Time: 03:48:14
(UTC+00:00)

Envisat - Visible Passes

Search period start: 03 February 2023 00:00
Search period end: 13 February 2023 00:00
Orbit: 763 x 765 km, 98.2° (Epoch: 02 February)

Date Brightness Start Highest point End Pass type
(mag) Time Alt. Az. Time Alt. Az. Time Alt. Az.
03 Feb 4.2 04:03:33 10° NNE 04:06:27 35° NNE 04:06:27 35° NNE visible
03 Feb 4.4 05:43:40 10° NNW 05:46:38 18° NW 05:46:38 18° NW visible
04 Feb 4.9 03:26:43 10° NNE 03:29:07 25° NE 03:29:07 25° NE visible
04 Feb 3.9 05:05:55 10° N 05:09:19 30° NW 05:09:19 30° NW visible
05 Feb 5.7 02:50:23 10° NE 02:51:47 15° NE 02:51:47 15° NE visible
05 Feb 3.7 04:28:33 10° N 04:31:59 41° N 04:31:59 41° N visible
05 Feb 4.7 06:09:39 10° NNW 06:11:39 12° NW 06:12:10 12° WNW visible
06 Feb 4.2 03:51:29 10° NNE 03:54:39 37° NNE 03:54:39 37° NNE visible
06 Feb 4.2 05:31:17 10° N 05:34:51 22° NW 05:34:51 22° NW visible
07 Feb 5.0 03:14:47 10° NNE 03:17:19 24° NE 03:17:19 24° NE visible
07 Feb 3.6 04:53:41 10° N 04:57:31 37° NW 04:57:31 37° NW visible
08 Feb 5.8 02:38:44 10° NE 02:40:00 14° ENE 02:40:00 14° ENE visible
08 Feb 3.5 04:16:26 10° NNE 04:20:11 50° N 04:20:11 50° N visible
08 Feb 4.6 05:56:58 10° NNW 05:59:45 15° NW 06:00:22 15° WNW visible
09 Feb 4.2 03:39:27 10° NNE 03:42:52 38° NE 03:42:52 38° NE visible
09 Feb 4.0 05:18:58 10° N 05:23:03 27° WNW 05:23:03 27° WNW visible
10 Feb 5.2 03:02:54 10° NE 03:05:32 22° ENE 03:05:32 22° ENE visible
10 Feb 3.3 04:41:30 10° N 04:45:44 46° NW 04:45:44 46° NW visible
11 Feb 5.9 02:27:20 10° ENE 02:28:13 12° ENE 02:28:13 12° ENE visible
11 Feb 3.4 04:04:20 10° NNE 04:08:24 58° NNE 04:08:24 58° NNE visible
11 Feb 4.4 05:44:29 10° NNW 05:47:50 18° NW 05:48:36 17° WNW visible
12 Feb 4.4 03:27:28 10° NNE 03:31:05 36° ENE 03:31:05 36° ENE visible
12 Feb 3.7 05:06:42 10° N 05:11:11 32° WNW 05:11:17 32° WNW visible
